Location: ?sanag?dem
(16.9522°N, 81.1036°E)
Time: 15:34:55
(UTC+00:00)

Envisat - Pass Details

Date: 20 August 2024
Orbit: 762 x 764 km, 98.3° (Epoch: 07 September)

Event Time Altitude Azimuth Distance (km) Brightness Sun altitude
Rises 22:19:56 0° 352° (N) 3,217 6.4 -28.2°
Reaches altitude 10° 22:22:37 10° 338° (NNW) 2,290 5.5 -27.6°
Enters shadow 22:23:05 12° 335° (NNW) 2,147 5.3 -27.5°
